Shi Jian 25

operational
NORAD ID: 62485 Int'l Des: 2025-002A Owner: SAST Country: CN
HEOCIRCULARGSO

About Shi Jian 25

Description loading...

Live Position

Loading 3D Globe...

Upcoming Passes

Altitude History

Altitude vs Time

uPlot chart will show altitude changes over time

Two-Line Element Set

1 62485U 25002A 26062.52271604 -.00000361 00000-0 00000+0 0 9997
2 62485 4.8636 61.7787 0048735 166.7542 248.0533 1.00283063 4303
Epoch: Mar 3, 2026 • Age: 23 hours

Current Status

Altitude 35655.1 km
Velocity 3.08 km/s
Sub-Earth Point -2.97°S, 127.49°E
Launch Date Jan 6, 2025
Age 1.1 years
Type other

Technical Details

Classification Payload
Mass 5000.00 kg
Dry Mass 2500.00 kg
Total Mass 5000.00 kg
Length 5.00 m
Diameter 2.50 m
Span 30.00 m
Shape Box + 2 Pan
Manufacturer SAST
Bus Type SJ21
Phase Status Docked
Owner/State SAST/CN

Large Constellations

Loading constellations...